EW8051 Weather Reports


Display with metric or nautical units.
time (UTC)temp
F
wind
direction
speed
MPH
gust
MPH
rain 1hr
in
rain 24hr
in
rain mn
in
humidity
%
barometer
mb
20260507112111 83 315 11.0 17.0 0.00 0.00 0.00 13 1010.6
20260507111311 83 315 8.0 17.0 0.00 0.00 0.00 13 1010.5
20260507110023 83 315 12.0 18.0 0.00 0.00 0.00 14 1010.5
20260507105051 84 315 8.0 11.0 0.00 0.00 0.00 13 1010.5
20260507104023 83 315 11.0 17.0 0.00 0.00 0.00 14 1010.6
20260507103047 83 315 10.0 17.0 0.00 0.00 0.00 13 1010.7
20260507102205 82 315 12.0 17.0 0.00 0.00 0.00 13 1010.7
20260507101049 82 315 13.0 20.0 0.00 0.00 0.00 13 1010.8
20260507100111 83 315 9.0 11.0 0.00 0.00 0.00 20 1010.7
20260507095107 83 315 5.0 8.0 0.00 0.00 0.00 20 1010.7
20260507094204 82 315 5.0 6.0 0.00 0.00 0.00 20 1010.7
20260507093047 81 315 9.0 14.0 0.00 0.00 0.00 22 1010.8
20260507092023 81 315 5.0 11.0 0.00 0.00 0.00 23 1010.8
20260507091047 81 315 4.0 6.0 0.00 0.00 0.00 24 1010.8
20260507085223 80 315 6.0 13.0 0.00 0.00 0.00 24 1010.8
20260507084023 80 315 3.0 5.0 0.00 0.00 0.00 26 1010.8
20260507083048 79 315 4.0 7.0 0.00 0.00 0.00 25 1010.9
20260507082247 79 315 5.0 8.0 0.00 0.00 0.00 27 1010.9
20260507081223 78 315 5.0 11.0 0.00 0.00 0.00 28 1011.0
20260507080043 78 315 3.0 5.0 0.00 0.00 0.00 30 1011.0
20260507075047 78 315 2.0 5.0 0.00 0.00 0.00 30 1011.0
20260507073759 76 315 3.0 4.0 0.00 0.00 0.00 31 1011.0
20260507072620 76 315 6.0 8.0 0.00 0.00 0.00 32 1011.2
20260507065535 73 315 1.0 3.0 0.00 0.00 0.00 41 1011.3
20260507065221 73 315 0.0 2.0 0.00 0.00 0.00 43 1011.4
20260507063535 72 0.0 0.0 0.00 0.00 0.00 49 1011.5
20260507062559 71 315 1.0 3.0 0.00 0.00 0.00 50 1011.5
20260507061536 71 315 1.0 2.0 0.00 0.00 0.00 50 1011.6
20260507060559 70 315 0.0 2.0 0.00 0.00 0.00 51 1011.7
20260507055555 70 315 1.0 4.0 0.00 0.00 0.00 52 1011.6
20260507054558 69 315 0.0 2.0 0.00 0.00 0.00 54 1011.6
20260507053616 68 315 1.0 3.0 0.00 0.00 0.00 55 1011.8
20260507052559 68 315 1.0 2.0 0.00 0.00 0.00 57 1011.8
20260507051535 67 0.0 0.0 0.00 0.00 0.00 59 1011.9
20260507050621 66 0.0 0.0 0.00 0.00 0.00 60 1012.0
20260507045535 66 0.0 0.0 0.00 0.00 0.00 60 1012.0
20260507044602 65 0.0 0.0 0.00 0.00 0.00 61 1011.8
20260507043535 64 0.0 1.0 0.00 0.00 0.00 62 1011.9
20260507042559 64 0.0 1.0 0.00 0.00 0.00 62 1011.9
20260507041536 63 0.0 1.0 0.00 0.00 0.00 66 1011.9
20260507040559 63 315 1.0 2.0 0.00 0.00 0.00 67 1011.9
20260507035542 62 315 2.0 4.0 0.00 0.00 0.00 67 1011.9
20260507034559 62 0.0 2.0 0.00 0.00 0.00 67 1012.1
20260507033537 61 315 0.0 2.0 0.00 0.00 0.00 68 1012.2
20260507032826 61 315 1.0 2.0 0.00 0.00 0.00 68 1012.1
20260507031535 61 315 1.0 3.0 0.00 0.00 0.00 68 1012.1
20260507030559 61 315 1.0 3.0 0.00 0.00 0.00 68 1012.1
20260507025535 60 315 2.0 4.0 0.00 0.00 0.00 68 1012.2
20260507024600 60 315 2.0 5.0 0.00 0.00 0.00 68 1012.3
20260507023555 59 315 1.0 4.0 0.00 0.00 0.00 67 1012.3
20260507022639 59 315 0.0 2.0 0.00 0.00 0.00 66 1012.3
20260507021544 59 315 2.0 4.0 0.00 0.00 0.00 67 1012.5
20260507020620 59 315 2.0 4.0 0.00 0.00 0.00 66 1012.7
20260507015535 59 315 2.0 5.0 0.00 0.00 0.00 65 1012.7
20260507014619 59 315 2.0 5.0 0.00 0.00 0.00 65 1012.8
20260507013536 59 315 2.0 5.0 0.00 0.00 0.00 64 1012.9
20260507012642 60 315 3.0 5.0 0.00 0.00 0.00 63 1013.0
20260507011535 60 315 3.0 4.0 0.00 0.00 0.00 62 1013.0
20260507010559 61 315 3.0 5.0 0.00 0.00 0.00 62 1013.1
20260507005536 61 315 4.0 5.0 0.00 0.00 0.00 61 1013.1
20260507004708 61 315 3.0 5.0 0.00 0.00 0.00 61 1013.2
20260507003537 61 315 4.0 6.0 0.00 0.00 0.00 61 1013.2
20260507002620 61 315 1.0 3.0 0.00 0.00 0.00 61 1013.3
20260507001536 61 315 0.0 3.0 0.00 0.00 0.00 61 1013.3
20260507000600 61 315 1.0 2.0 0.00 0.00 0.00 60 1013.3
20260506235535 61 315 1.0 2.0 0.00 0.00 0.00 60 1013.3
20260506234600 61 315 1.0 4.0 0.00 0.00 0.00 60 1013.3
20260506233536 62 315 0.0 2.0 0.00 0.00 0.00 60 1013.3
20260506232559 62 315 2.0 3.0 0.00 0.00 0.00 59 1013.4
20260506231536 62 315 1.0 2.0 0.00 0.00 0.00 57 1013.4
20260506230601 63 315 2.0 5.0 0.00 0.00 0.00 56 1013.4
20260506225536 63 315 2.0 5.0 0.00 0.00 0.00 55 1013.4
20260506224652 63 315 1.0 2.0 0.00 0.00 0.00 54 1013.4
20260506223535 63 315 0.0 2.0 0.00 0.00 0.00 51 1013.3
20260506222603 64 315 3.0 9.0 0.00 0.00 0.00 50 1013.4
20260506221623 64 315 3.0 8.0 0.00 0.00 0.00 50 1013.4
20260506220620 64 315 2.0 5.0 0.00 0.00 0.00 50 1013.4
20260506215535 65 315 0.0 2.0 0.00 0.00 0.00 50 1013.4
20260506214600 65 315 3.0 7.0 0.00 0.00 0.00 50 1013.3
20260506213543 65 315 0.0 2.0 0.00 0.00 0.00 50 1013.2
20260506212600 65 315 1.0 3.0 0.00 0.00 0.00 51 1013.2
20260506211536 65 315 3.0 8.0 0.00 0.00 0.00 51 1013.2
20260506210600 66 315 2.0 5.0 0.00 0.00 0.00 51 1013.3
20260506205224 66 315 4.0 9.0 0.00 0.00 0.00 51 1013.2
20260506204025 67 315 3.0 8.0 0.00 0.00 0.00 51 1013.1
20260506203050 67 315 2.0 8.0 0.00 0.00 0.00 51 1013.1
20260506202024 67 315 3.0 6.0 0.00 0.00 0.00 51 1013.0
20260506200603 68 315 1.0 4.0 0.00 0.00 0.00 51 1012.9
20260506195629 68 315 0.0 2.0 0.00 0.00 0.00 51 1012.7
20260506194620 68 315 1.0 5.0 0.00 0.00 0.00 51 1012.6
20260506193636 68 315 3.0 6.0 0.00 0.00 0.00 51 1012.5
20260506192602 69 315 0.0 2.0 0.00 0.00 0.00 51 1012.4
20260506191538 69 315 1.0 3.0 0.00 0.00 0.00 51 1012.4
20260506190828 69 315 1.0 5.0 0.00 0.00 0.00 51 1012.4
20260506185541 70 315 1.0 5.0 0.00 0.00 0.00 51 1012.4
20260506184600 70 315 2.0 4.0 0.00 0.00 0.00 51 1012.3
20260506183632 70 315 3.0 5.0 0.00 0.00 0.00 50 1012.3
20260506182600 71 315 1.0 3.0 0.00 0.00 0.00 50 1012.3
20260506181542 71 315 5.0 8.0 0.00 0.00 0.00 49 1012.2
20260506180601 72 315 5.0 8.0 0.00 0.00 0.00 48 1012.1
20260506175536 72 315 6.0 8.0 0.00 0.00 0.00 47 1012.1
20260506174622 73 315 6.0 9.0 0.00 0.00 0.00 43 1012.0
20260506173537 73 315 3.0 5.0 0.00 0.00 0.00 43 1011.9
20260506172609 74 315 3.0 6.0 0.00 0.00 0.00 42 1011.7
20260506171558 74 315 4.0 7.0 0.00 0.00 0.00 41 1011.7
20260506170605 74 315 3.0 5.0 0.00 0.00 0.00 41 1011.5
20260506165712 75 315 3.0 5.0 0.00 0.00 0.00 40 1011.4
20260506164649 75 315 0.0 2.0 0.00 0.00 0.00 37 1011.2
20260506163624 76 315 3.0 4.0 0.00 0.00 0.00 36 1011.1
20260506163357 76 315 3.0 5.0 0.00 0.00 0.00 35 1011.1
20260506161558 77 315 5.0 8.0 0.00 0.00 0.00 34 1011.1
20260506160601 80 315 3.0 4.0 0.00 0.00 0.00 32 1011.0
20260506155625 80 315 6.0 10.0 0.00 0.00 0.00 31 1011.0
20260506154600 82 315 2.0 6.0 0.00 0.00 0.00 29 1010.9
20260506153536 82 315 4.0 10.0 0.00 0.00 0.00 29 1010.8
20260506152606 81 315 5.0 8.0 0.00 0.00 0.00 31 1010.8
20260506151536 81 315 3.0 5.0 0.00 0.00 0.00 31 1010.7
20260506150616 82 315 6.0 10.0 0.00 0.00 0.00 28 1010.8
20260506145539 83 315 5.0 8.0 0.00 0.00 0.00 26 1010.6
20260506144601 83 315 2.0 5.0 0.00 0.00 0.00 26 1010.6
20260506143543 84 315 2.0 8.0 0.00 0.00 0.00 27 1010.5
20260506142600 82 315 5.0 8.0 0.00 0.00 0.00 29 1010.6
20260506141536 82 315 7.0 11.0 0.00 0.00 0.00 28 1010.6
20260506140600 82 315 3.0 11.0 0.00 0.00 0.00 29 1010.5
20260506135537 80 315 7.0 11.0 0.00 0.00 0.00 32 1010.5
20260506134606 80 315 10.0 17.0 0.00 0.00 0.00 31 1010.5
20260506133537 81 315 5.0 10.0 0.00 0.00 0.00 31 1010.4
20260506132600 79 315 8.0 13.0 0.00 0.00 0.00 32 1010.3
20260506131537 79 315 7.0 14.0 0.00 0.00 0.00 31 1010.2
20260506130621 80 315 10.0 17.0 0.00 0.00 0.00 30 1010.2
20260506125537 80 315 6.0 14.0 0.00 0.00 0.00 31 1010.2
20260506124629 80 315 8.0 19.0 0.00 0.00 0.00 31 1010.3
20260506123536 80 315 4.0 7.0 0.00 0.00 0.00 31 1010.2
20260506122621 80 315 7.0 16.0 0.00 0.00 0.00 31 1010.3
20260506121537 80 315 6.0 14.0 0.00 0.00 0.00 31 1010.2
20260506120601 80 315 9.0 15.0 0.00 0.00 0.00 31 1010.2
20260506115557 80 315 7.0 14.0 0.00 0.00 0.00 31 1010.2
20260506114601 79 315 7.0 16.0 0.00 0.00 0.00 31 1010.2
20260506113536 79 315 6.0 14.0 0.00 0.00 0.00 31 1010.3